Year,Month,Day,Hour,Minute,Value (Times are PST for temperature in C)
2015,08,03,00,00,20.40
2015,08,03,00,01,20.30
2015,08,03,00,02,20.30
2015,08,03,00,03,20.30
2015,08,03,00,04,20.40
2015,08,03,00,05,20.40
2015,08,03,00,06,20.50
2015,08,03,00,07,20.60
2015,08,03,00,08,20.70
2015,08,03,00,09,20.80
2015,08,03,00,10,20.80
2015,08,03,00,11,20.90
2015,08,03,00,12,20.90
2015,08,03,00,13,21.00
2015,08,03,00,14,21.00
2015,08,03,00,15,21.10
2015,08,03,00,16,21.10
2015,08,03,00,17,21.10
2015,08,03,00,18,21.10
2015,08,03,00,19,21.10
2015,08,03,00,20,21.10
2015,08,03,00,21,21.10
2015,08,03,00,22,21.10
2015,08,03,00,23,21.10
2015,08,03,00,24,21.10
2015,08,03,00,25,21.10
2015,08,03,00,26,21.10
2015,08,03,00,27,21.10
2015,08,03,00,28,21.10
2015,08,03,00,29,21.10
2015,08,03,00,30,21.10
2015,08,03,00,31,21.00
2015,08,03,00,32,21.00
2015,08,03,00,33,21.00
2015,08,03,00,34,20.90
2015,08,03,00,35,20.90
2015,08,03,00,36,20.90
2015,08,03,00,37,20.80
2015,08,03,00,38,20.80
2015,08,03,00,39,20.80
2015,08,03,00,40,20.70
2015,08,03,00,41,20.70
2015,08,03,00,42,20.70
2015,08,03,00,43,20.70
2015,08,03,00,44,20.70
2015,08,03,00,45,20.70
2015,08,03,00,46,20.70
2015,08,03,00,47,20.70
2015,08,03,00,48,20.70
2015,08,03,00,49,20.70
2015,08,03,00,50,20.70
2015,08,03,00,51,20.70
2015,08,03,00,52,20.70
2015,08,03,00,53,20.70
2015,08,03,00,54,20.60
2015,08,03,00,55,20.60
2015,08,03,00,56,20.70
2015,08,03,00,57,20.70
2015,08,03,00,58,20.70
2015,08,03,00,59,20.70
2015,08,03,01,00,20.80
2015,08,03,01,01,20.80
2015,08,03,01,02,20.80
2015,08,03,01,03,20.80
2015,08,03,01,04,20.80
2015,08,03,01,05,20.80
2015,08,03,01,06,20.80
2015,08,03,01,07,20.80
2015,08,03,01,08,20.80
2015,08,03,01,09,20.80
2015,08,03,01,10,20.80
2015,08,03,01,11,20.80
2015,08,03,01,12,20.80
2015,08,03,01,13,20.80
2015,08,03,01,14,20.80
2015,08,03,01,15,20.80
2015,08,03,01,16,20.80
2015,08,03,01,17,20.80
2015,08,03,01,18,20.80
2015,08,03,01,19,20.80
2015,08,03,01,20,20.80
2015,08,03,01,21,20.80
2015,08,03,01,22,20.80
2015,08,03,01,23,20.80
2015,08,03,01,24,20.80
2015,08,03,01,25,20.70
2015,08,03,01,26,20.70
2015,08,03,01,27,20.70
2015,08,03,01,28,20.70
2015,08,03,01,29,20.70
2015,08,03,01,30,20.60
2015,08,03,01,31,20.60
2015,08,03,01,32,20.60
2015,08,03,01,33,20.60
2015,08,03,01,34,20.50
2015,08,03,01,35,20.50
2015,08,03,01,36,20.50
2015,08,03,01,37,20.50
2015,08,03,01,38,20.50
2015,08,03,01,39,20.40
2015,08,03,01,40,20.40
2015,08,03,01,41,20.30
2015,08,03,01,42,20.30
2015,08,03,01,43,20.30
2015,08,03,01,44,20.20
2015,08,03,01,45,20.20
2015,08,03,01,46,20.20
2015,08,03,01,47,20.20
2015,08,03,01,48,20.20
2015,08,03,01,49,20.20
2015,08,03,01,50,20.20
2015,08,03,01,51,20.10
2015,08,03,01,52,20.10
2015,08,03,01,53,20.10
2015,08,03,01,54,20.10
2015,08,03,01,55,20.10
2015,08,03,01,56,19.90
2015,08,03,01,57,19.90
2015,08,03,01,58,19.90
2015,08,03,01,59,19.90
2015,08,03,02,00,19.90
2015,08,03,02,01,19.80
2015,08,03,02,02,19.80
2015,08,03,02,03,19.80
2015,08,03,02,04,19.80
2015,08,03,02,05,19.80
2015,08,03,02,06,19.80
2015,08,03,02,07,19.70
2015,08,03,02,08,19.70
2015,08,03,02,09,19.70
2015,08,03,02,10,19.60
2015,08,03,02,11,19.60
2015,08,03,02,12,19.60
2015,08,03,02,13,19.60
2015,08,03,02,14,19.60
2015,08,03,02,15,19.50
2015,08,03,02,16,19.50
2015,08,03,02,17,19.50
2015,08,03,02,18,19.50
2015,08,03,02,19,19.50
2015,08,03,02,20,19.40
2015,08,03,02,21,19.40
2015,08,03,02,22,19.40
2015,08,03,02,23,19.40
2015,08,03,02,24,19.40
2015,08,03,02,25,19.40
2015,08,03,02,26,19.40
2015,08,03,02,27,19.40
2015,08,03,02,28,19.40
2015,08,03,02,29,19.40
2015,08,03,02,30,19.40
2015,08,03,02,31,19.40
2015,08,03,02,32,19.40
2015,08,03,02,33,19.40
2015,08,03,02,34,19.40
2015,08,03,02,35,19.40
2015,08,03,02,36,19.40
2015,08,03,02,37,19.40
2015,08,03,02,38,19.40
2015,08,03,02,39,19.30
2015,08,03,02,40,19.30
2015,08,03,02,41,19.30
2015,08,03,02,42,19.30
2015,08,03,02,43,19.30
2015,08,03,02,44,19.30
2015,08,03,02,45,19.30
2015,08,03,02,46,19.30
2015,08,03,02,47,19.30
2015,08,03,02,48,19.30
2015,08,03,02,49,19.20
2015,08,03,02,50,19.20
2015,08,03,02,51,19.20
2015,08,03,02,52,19.10
2015,08,03,02,53,19.10
2015,08,03,02,54,19.10
2015,08,03,02,55,19.10
2015,08,03,02,56,19.10
2015,08,03,02,57,19.10
2015,08,03,02,58,19.10
2015,08,03,02,59,19.10
2015,08,03,03,00,19.10
2015,08,03,03,01,19.10
2015,08,03,03,02,19.10
2015,08,03,03,03,19.00
2015,08,03,03,04,18.90
2015,08,03,03,05,18.90
2015,08,03,03,06,18.90
2015,08,03,03,07,18.90
2015,08,03,03,08,18.90
2015,08,03,03,09,18.90
2015,08,03,03,10,18.90
2015,08,03,03,11,18.90
2015,08,03,03,12,18.90
2015,08,03,03,13,18.90
2015,08,03,03,14,18.80
2015,08,03,03,15,18.80
2015,08,03,03,16,18.70
2015,08,03,03,17,18.70
2015,08,03,03,18,18.60
2015,08,03,03,19,18.60
2015,08,03,03,20,18.60
2015,08,03,03,21,18.50
2015,08,03,03,22,18.50
2015,08,03,03,23,18.40
2015,08,03,03,24,18.40
2015,08,03,03,25,18.40
2015,08,03,03,26,18.30
2015,08,03,03,27,18.30
2015,08,03,03,28,18.30
2015,08,03,03,29,18.20
2015,08,03,03,30,18.20
2015,08,03,03,31,18.20
2015,08,03,03,32,18.20
2015,08,03,03,33,18.20
2015,08,03,03,34,18.20
2015,08,03,03,35,18.20
2015,08,03,03,36,18.10
2015,08,03,03,37,18.10
2015,08,03,03,38,18.10
2015,08,03,03,39,18.00
2015,08,03,03,40,17.90
2015,08,03,03,41,17.90
2015,08,03,03,42,17.90
2015,08,03,03,43,17.90
2015,08,03,03,44,17.90
2015,08,03,03,45,17.90
2015,08,03,03,46,17.90
2015,08,03,03,47,17.90
2015,08,03,03,48,17.90
2015,08,03,03,49,17.90
2015,08,03,03,50,17.90
2015,08,03,03,51,17.90
2015,08,03,03,52,17.90
2015,08,03,03,53,17.90
2015,08,03,03,54,17.90
2015,08,03,03,55,17.90
2015,08,03,03,56,17.90
2015,08,03,03,57,17.90
2015,08,03,03,58,17.90
2015,08,03,03,59,17.90
2015,08,03,04,00,17.90
2015,08,03,04,01,17.90
2015,08,03,04,02,17.90
2015,08,03,04,03,17.90
2015,08,03,04,04,17.90
2015,08,03,04,05,17.90
2015,08,03,04,06,17.90
2015,08,03,04,07,17.90
2015,08,03,04,08,17.90
2015,08,03,04,09,17.80
2015,08,03,04,10,17.80
2015,08,03,04,11,17.80
2015,08,03,04,12,17.80
2015,08,03,04,13,17.80
2015,08,03,04,14,17.80
2015,08,03,04,15,17.70
2015,08,03,04,16,17.70
2015,08,03,04,17,17.70
2015,08,03,04,18,17.70
2015,08,03,04,19,17.70
2015,08,03,04,20,17.70
2015,08,03,04,21,17.60
2015,08,03,04,22,17.60
2015,08,03,04,23,17.60
2015,08,03,04,24,17.60
2015,08,03,04,25,17.50
2015,08,03,04,26,17.50
2015,08,03,04,27,17.50
2015,08,03,04,28,17.50
2015,08,03,04,29,17.50
2015,08,03,04,30,17.50
2015,08,03,04,31,17.50
2015,08,03,04,32,17.50
2015,08,03,04,33,17.50
2015,08,03,04,34,17.60
2015,08,03,04,35,17.60
2015,08,03,04,36,17.70
2015,08,03,04,37,17.70
2015,08,03,04,38,17.70
2015,08,03,04,39,17.70
2015,08,03,04,40,17.70
2015,08,03,04,41,17.70
2015,08,03,04,42,17.70
2015,08,03,04,43,17.80
2015,08,03,04,44,17.80
2015,08,03,04,45,17.80
2015,08,03,04,46,17.80
2015,08,03,04,47,17.80
2015,08,03,04,48,17.80
2015,08,03,04,49,17.80
2015,08,03,04,50,17.80
2015,08,03,04,51,17.70
2015,08,03,04,52,17.70
2015,08,03,04,53,17.70
2015,08,03,04,54,17.70
2015,08,03,04,55,17.70
2015,08,03,04,56,17.60
2015,08,03,04,57,17.60
2015,08,03,04,58,17.60
2015,08,03,04,59,17.60
2015,08,03,05,00,17.60
2015,08,03,05,01,17.50
2015,08,03,05,02,17.50
2015,08,03,05,03,17.50
2015,08,03,05,04,17.40
2015,08,03,05,05,17.40
2015,08,03,05,06,17.40
2015,08,03,05,07,17.40
2015,08,03,05,08,17.40
2015,08,03,05,09,17.40
2015,08,03,05,10,17.40
2015,08,03,05,11,17.40
2015,08,03,05,12,17.40
2015,08,03,05,13,17.30
2015,08,03,05,14,17.30
2015,08,03,05,15,17.30
2015,08,03,05,16,17.30
2015,08,03,05,17,17.30
2015,08,03,05,18,17.30
2015,08,03,05,19,17.30
2015,08,03,05,20,17.30
2015,08,03,05,21,17.30
2015,08,03,05,22,17.30
2015,08,03,05,23,17.20
2015,08,03,05,24,17.20
2015,08,03,05,25,17.20
2015,08,03,05,26,17.20
2015,08,03,05,27,17.20
2015,08,03,05,28,17.20
2015,08,03,05,29,17.20
2015,08,03,05,30,17.20
2015,08,03,05,31,17.20
2015,08,03,05,32,17.20
2015,08,03,05,33,17.20
2015,08,03,05,34,17.20
2015,08,03,05,35,17.20
2015,08,03,05,36,17.20
2015,08,03,05,37,17.20
2015,08,03,05,38,17.20
2015,08,03,05,39,17.20
2015,08,03,05,40,17.20
2015,08,03,05,41,17.30
2015,08,03,05,42,17.30
2015,08,03,05,43,17.30
2015,08,03,05,44,17.20
2015,08,03,05,45,17.20
2015,08,03,05,46,17.20
2015,08,03,05,47,17.20
2015,08,03,05,48,17.20
2015,08,03,05,49,17.20
2015,08,03,05,50,17.10
2015,08,03,05,51,17.10
2015,08,03,05,52,17.10
2015,08,03,05,53,17.10
2015,08,03,05,54,17.10
2015,08,03,05,55,17.00
2015,08,03,05,56,17.00
2015,08,03,05,57,17.00
2015,08,03,05,58,17.00
2015,08,03,05,59,17.00
2015,08,03,06,00,16.90
2015,08,03,06,01,16.90
2015,08,03,06,02,16.90
2015,08,03,06,03,16.80
2015,08,03,06,04,16.80
2015,08,03,06,05,16.80
2015,08,03,06,06,16.70
2015,08,03,06,07,16.70
2015,08,03,06,08,16.70
2015,08,03,06,09,16.70
2015,08,03,06,10,16.70
2015,08,03,06,11,16.70
2015,08,03,06,12,16.70
2015,08,03,06,13,16.70
2015,08,03,06,14,16.70
2015,08,03,06,15,16.70
2015,08,03,06,16,16.70
2015,08,03,06,17,16.70
2015,08,03,06,18,16.70
2015,08,03,06,19,16.70
2015,08,03,06,20,16.70
2015,08,03,06,21,16.70
2015,08,03,06,22,16.70
2015,08,03,06,23,16.70
2015,08,03,06,24,16.70
2015,08,03,06,25,16.70
2015,08,03,06,26,16.70
2015,08,03,06,27,16.70
2015,08,03,06,28,16.70
2015,08,03,06,29,16.70
2015,08,03,06,30,16.70
2015,08,03,06,31,16.70
2015,08,03,06,32,16.70
2015,08,03,06,33,16.70
2015,08,03,06,34,16.70
2015,08,03,06,35,16.70
2015,08,03,06,36,16.70
2015,08,03,06,37,16.70
2015,08,03,06,38,16.70
2015,08,03,06,39,16.70
2015,08,03,06,40,16.70
2015,08,03,06,41,16.80
2015,08,03,06,42,16.80
2015,08,03,06,43,16.80
2015,08,03,06,44,16.90
2015,08,03,06,45,16.90
2015,08,03,06,46,17.00
2015,08,03,06,47,17.00
2015,08,03,06,48,17.00
2015,08,03,06,49,17.10
2015,08,03,06,50,17.10
2015,08,03,06,51,17.10
2015,08,03,06,52,17.20
2015,08,03,06,53,17.20
2015,08,03,06,54,17.20
2015,08,03,06,55,17.20
2015,08,03,06,56,17.20
2015,08,03,06,57,17.30
2015,08,03,06,58,17.30
2015,08,03,06,59,17.30
2015,08,03,07,00,17.30
2015,08,03,07,01,17.30
2015,08,03,07,02,17.30
2015,08,03,07,03,17.30
2015,08,03,07,04,17.30
2015,08,03,07,05,17.40
2015,08,03,07,06,17.40
2015,08,03,07,07,17.50
2015,08,03,07,08,17.50
2015,08,03,07,09,17.50
2015,08,03,07,10,17.50
2015,08,03,07,11,17.60
2015,08,03,07,12,17.60
2015,08,03,07,13,17.60
2015,08,03,07,14,17.70
2015,08,03,07,15,17.70
2015,08,03,07,16,17.70
2015,08,03,07,17,17.70
2015,08,03,07,18,17.80
2015,08,03,07,19,17.80
2015,08,03,07,20,17.80
2015,08,03,07,21,17.80
2015,08,03,07,22,17.80
2015,08,03,07,23,17.80
2015,08,03,07,24,17.80
2015,08,03,07,25,17.90
2015,08,03,07,26,17.90
2015,08,03,07,27,17.90
2015,08,03,07,28,17.90
2015,08,03,07,29,17.90
2015,08,03,07,30,17.90
2015,08,03,07,31,17.90
2015,08,03,07,32,17.90
2015,08,03,07,33,17.90
2015,08,03,07,34,17.90
2015,08,03,07,35,17.90
2015,08,03,07,36,17.90
2015,08,03,07,37,17.90
2015,08,03,07,38,17.90
2015,08,03,07,39,17.90
2015,08,03,07,40,18.00
2015,08,03,07,41,18.10
2015,08,03,07,42,18.10
2015,08,03,07,43,18.10
2015,08,03,07,44,18.20
2015,08,03,07,45,18.20
2015,08,03,07,46,18.20
2015,08,03,07,47,18.20
2015,08,03,07,48,18.30
2015,08,03,07,49,18.30
2015,08,03,07,50,18.30
2015,08,03,07,51,18.30
2015,08,03,07,52,18.30
2015,08,03,07,53,18.30
2015,08,03,07,54,18.30
2015,08,03,07,55,18.40
2015,08,03,07,56,18.40
2015,08,03,07,57,18.40
2015,08,03,07,58,18.40
2015,08,03,07,59,18.40
2015,08,03,08,00,18.40
2015,08,03,08,01,18.40
2015,08,03,08,02,18.50
2015,08,03,08,03,18.50
2015,08,03,08,04,18.50
2015,08,03,08,05,18.50
2015,08,03,08,06,18.60
2015,08,03,08,07,18.60
2015,08,03,08,08,18.60
2015,08,03,08,09,18.60
2015,08,03,08,10,18.60
2015,08,03,08,11,18.60
2015,08,03,08,12,18.60
2015,08,03,08,13,18.60
2015,08,03,08,14,18.60
2015,08,03,08,15,18.60
2015,08,03,08,16,18.70
2015,08,03,08,17,18.60
2015,08,03,08,18,18.70
2015,08,03,08,19,18.70
2015,08,03,08,20,18.70
2015,08,03,08,21,18.80
2015,08,03,08,22,18.80
2015,08,03,08,23,18.80
2015,08,03,08,24,18.80
2015,08,03,08,25,18.80
2015,08,03,08,26,18.80
2015,08,03,08,27,18.80
2015,08,03,08,28,18.80
2015,08,03,08,29,18.80
2015,08,03,08,30,18.90
2015,08,03,08,31,18.90
2015,08,03,08,32,18.90
2015,08,03,08,33,18.90
2015,08,03,08,34,19.10
2015,08,03,08,35,19.10
2015,08,03,08,36,19.20
2015,08,03,08,37,19.30
2015,08,03,08,38,19.40
2015,08,03,08,39,19.50
2015,08,03,08,40,19.60
2015,08,03,08,41,19.60
2015,08,03,08,42,19.70
2015,08,03,08,43,19.70
2015,08,03,08,44,19.70
2015,08,03,08,45,19.70
2015,08,03,08,46,19.80
2015,08,03,08,47,19.80
2015,08,03,08,48,19.90
2015,08,03,08,49,19.90
2015,08,03,08,50,19.90
2015,08,03,08,51,20.00
2015,08,03,08,52,20.10
2015,08,03,08,53,20.20
2015,08,03,08,54,20.20
2015,08,03,08,55,20.30
2015,08,03,08,56,20.30
2015,08,03,08,57,20.40
2015,08,03,08,58,20.40
2015,08,03,08,59,20.40
2015,08,03,09,00,20.40
2015,08,03,09,01,20.50
2015,08,03,09,02,20.60
2015,08,03,09,03,20.60
2015,08,03,09,04,20.60
2015,08,03,09,05,20.50
2015,08,03,09,06,20.50
2015,08,03,09,07,20.50
2015,08,03,09,08,20.50
2015,08,03,09,09,20.60
2015,08,03,09,10,20.50
2015,08,03,09,11,20.50
2015,08,03,09,12,20.50
2015,08,03,09,13,20.50
2015,08,03,09,14,20.50
2015,08,03,09,15,20.40
2015,08,03,09,16,20.50
2015,08,03,09,17,20.50
2015,08,03,09,18,20.50
2015,08,03,09,19,20.50
2015,08,03,09,20,20.40
2015,08,03,09,21,20.40
2015,08,03,09,22,20.40
2015,08,03,09,23,20.40
2015,08,03,09,24,20.40
2015,08,03,09,25,20.40
2015,08,03,09,26,20.40
2015,08,03,09,27,20.50
2015,08,03,09,28,20.50
2015,08,03,09,29,20.50
2015,08,03,09,30,20.60
2015,08,03,09,31,20.50
2015,08,03,09,32,20.50
2015,08,03,09,33,20.50
2015,08,03,09,34,20.50
2015,08,03,09,35,20.60
2015,08,03,09,36,20.60
2015,08,03,09,37,20.60
2015,08,03,09,38,20.60
2015,08,03,09,39,20.50
2015,08,03,09,40,20.40
2015,08,03,09,41,20.30
2015,08,03,09,42,20.30
2015,08,03,09,43,20.20
2015,08,03,09,44,20.20
2015,08,03,09,45,20.20
2015,08,03,09,46,20.20
2015,08,03,09,47,20.20
2015,08,03,09,48,20.30
2015,08,03,09,49,20.30
2015,08,03,09,50,20.40
2015,08,03,09,51,20.40
2015,08,03,09,52,20.40
2015,08,03,09,53,20.50
2015,08,03,09,54,20.60
2015,08,03,09,55,20.60
2015,08,03,09,56,20.60
2015,08,03,09,57,20.60
2015,08,03,09,58,20.50
2015,08,03,09,59,20.40
2015,08,03,10,00,20.30
2015,08,03,10,01,20.30
2015,08,03,10,02,20.20
2015,08,03,10,03,20.30
2015,08,03,10,04,20.30
2015,08,03,10,05,20.40
2015,08,03,10,06,20.40
2015,08,03,10,07,20.50
2015,08,03,10,08,20.60
2015,08,03,10,09,20.60
2015,08,03,10,10,20.60
2015,08,03,10,11,20.50
2015,08,03,10,12,20.40
2015,08,03,10,13,20.40
2015,08,03,10,14,20.40
2015,08,03,10,15,20.40
2015,08,03,10,16,20.40
2015,08,03,10,17,20.50
2015,08,03,10,18,20.50
2015,08,03,10,19,20.50
2015,08,03,10,20,20.60
2015,08,03,10,21,20.60
2015,08,03,10,22,20.70
2015,08,03,10,23,20.70
2015,08,03,10,24,20.70
2015,08,03,10,25,20.70
2015,08,03,10,26,20.70
2015,08,03,10,27,20.80
2015,08,03,10,28,20.80
2015,08,03,10,29,20.90
2015,08,03,10,30,21.00
2015,08,03,10,31,21.00
2015,08,03,10,32,21.10
2015,08,03,10,33,21.20
2015,08,03,10,34,21.20
2015,08,03,10,35,21.30
2015,08,03,10,36,21.30
2015,08,03,10,37,21.30
2015,08,03,10,38,21.30
2015,08,03,10,39,21.30
2015,08,03,10,40,21.20
2015,08,03,10,41,21.10
2015,08,03,10,42,21.10
2015,08,03,10,43,21.10
2015,08,03,10,44,21.10
2015,08,03,10,45,21.00
2015,08,03,10,46,21.00
2015,08,03,10,47,21.00
2015,08,03,10,48,21.00
2015,08,03,10,49,20.90
2015,08,03,10,50,21.00
2015,08,03,10,51,21.00
2015,08,03,10,52,21.00
2015,08,03,10,53,21.00
2015,08,03,10,54,21.10
2015,08,03,10,55,21.20
2015,08,03,10,56,21.30
2015,08,03,10,57,21.30
2015,08,03,10,58,21.30
2015,08,03,10,59,21.40
2015,08,03,11,00,21.50
2015,08,03,11,01,21.60
2015,08,03,11,02,21.60
2015,08,03,11,03,21.70
2015,08,03,11,04,21.80
2015,08,03,11,05,21.80
2015,08,03,11,06,21.80
2015,08,03,11,07,21.80
2015,08,03,11,08,21.80
2015,08,03,11,09,21.80
2015,08,03,11,10,21.80
2015,08,03,11,11,21.80
2015,08,03,11,12,21.80
2015,08,03,11,13,21.80
2015,08,03,11,14,21.70
2015,08,03,11,15,21.80
2015,08,03,11,16,21.90
2015,08,03,11,17,21.90
2015,08,03,11,18,21.90
2015,08,03,11,19,21.90
2015,08,03,11,20,21.90
2015,08,03,11,21,21.80
2015,08,03,11,22,21.90
2015,08,03,11,23,21.90
2015,08,03,11,24,21.80
2015,08,03,11,25,21.70
2015,08,03,11,26,21.70
2015,08,03,11,27,21.60
2015,08,03,11,28,21.60
2015,08,03,11,29,21.60
2015,08,03,11,30,21.60
2015,08,03,11,31,21.60
2015,08,03,11,32,21.50
2015,08,03,11,33,21.40
2015,08,03,11,34,21.30
2015,08,03,11,35,21.30
2015,08,03,11,36,21.30
2015,08,03,11,37,21.30
2015,08,03,11,38,21.50
2015,08,03,11,39,21.60
2015,08,03,11,40,21.70
2015,08,03,11,41,21.90
2015,08,03,11,42,22.00
2015,08,03,11,43,22.00
2015,08,03,11,44,22.00
2015,08,03,11,45,22.00
2015,08,03,11,46,22.10
2015,08,03,11,47,22.00
2015,08,03,11,48,21.90
2015,08,03,11,49,21.60
2015,08,03,11,50,21.50
2015,08,03,11,51,21.40
2015,08,03,11,52,21.30
2015,08,03,11,53,21.30
2015,08,03,11,54,21.30
2015,08,03,11,55,21.30
2015,08,03,11,56,21.30
2015,08,03,11,57,21.30
2015,08,03,11,58,21.30
2015,08,03,11,59,21.50
2015,08,03,12,00,21.60
2015,08,03,12,01,21.70
2015,08,03,12,02,21.90
2015,08,03,12,03,21.90
2015,08,03,12,04,21.90
2015,08,03,12,05,21.90
2015,08,03,12,06,21.90
2015,08,03,12,07,22.00
2015,08,03,12,08,22.00
2015,08,03,12,09,22.10
2015,08,03,12,10,22.20
2015,08,03,12,11,22.30
2015,08,03,12,12,22.40
2015,08,03,12,13,22.50
2015,08,03,12,14,22.60
2015,08,03,12,15,22.80
2015,08,03,12,16,22.90
2015,08,03,12,17,22.80
2015,08,03,12,18,22.70
2015,08,03,12,19,22.60
2015,08,03,12,20,22.50
2015,08,03,12,21,22.50
2015,08,03,12,22,22.60
2015,08,03,12,23,22.60
2015,08,03,12,24,22.60
2015,08,03,12,25,22.70
2015,08,03,12,26,22.70
2015,08,03,12,27,22.80
2015,08,03,12,28,22.80
2015,08,03,12,29,22.90
2015,08,03,12,30,22.90
2015,08,03,12,31,22.90
2015,08,03,12,32,22.90
2015,08,03,12,33,22.90
2015,08,03,12,34,22.90
2015,08,03,12,35,23.00
2015,08,03,12,36,23.10
2015,08,03,12,37,23.20
2015,08,03,12,38,23.30
2015,08,03,12,39,23.30
2015,08,03,12,40,23.50
2015,08,03,12,41,23.60
2015,08,03,12,42,23.60
2015,08,03,12,43,23.40
2015,08,03,12,44,23.30
2015,08,03,12,45,23.00
2015,08,03,12,46,22.80
2015,08,03,12,47,22.80
2015,08,03,12,48,22.80
2015,08,03,12,49,22.70
2015,08,03,12,50,22.80
2015,08,03,12,51,22.80
2015,08,03,12,52,22.70
2015,08,03,12,53,22.60
2015,08,03,12,54,22.60
2015,08,03,12,55,22.60
2015,08,03,12,56,22.70
2015,08,03,12,57,22.80
2015,08,03,12,58,22.90
2015,08,03,12,59,22.90
2015,08,03,13,00,22.90
2015,08,03,13,01,22.90
2015,08,03,13,02,22.90
2015,08,03,13,03,22.90
2015,08,03,13,04,22.90
2015,08,03,13,05,22.90
2015,08,03,13,06,22.90
2015,08,03,13,07,22.90
2015,08,03,13,08,22.80
2015,08,03,13,09,22.80
2015,08,03,13,10,22.70
2015,08,03,13,11,22.70
2015,08,03,13,12,22.80
2015,08,03,13,13,22.80
2015,08,03,13,14,22.80
2015,08,03,13,15,22.80
2015,08,03,13,16,22.80
2015,08,03,13,17,22.90
2015,08,03,13,18,23.00
2015,08,03,13,19,23.10
2015,08,03,13,20,23.20
2015,08,03,13,21,23.30
2015,08,03,13,22,23.30
2015,08,03,13,23,23.30
2015,08,03,13,24,23.30
2015,08,03,13,25,23.30
2015,08,03,13,26,23.30
2015,08,03,13,27,23.40
2015,08,03,13,28,23.40
2015,08,03,13,29,23.40
2015,08,03,13,30,23.40
2015,08,03,13,31,23.40
2015,08,03,13,32,23.40
2015,08,03,13,33,23.50
2015,08,03,13,34,23.60
2015,08,03,13,35,23.70
2015,08,03,13,36,23.80
2015,08,03,13,37,23.80
2015,08,03,13,38,23.90
2015,08,03,13,39,23.90
2015,08,03,13,40,24.00
2015,08,03,13,41,24.10
2015,08,03,13,42,24.10
2015,08,03,13,43,24.20
2015,08,03,13,44,24.30
2015,08,03,13,45,24.30
2015,08,03,13,46,24.20
2015,08,03,13,47,24.10
2015,08,03,13,48,24.10
2015,08,03,13,49,24.20
2015,08,03,13,50,24.20
2015,08,03,13,51,24.30
2015,08,03,13,52,24.40
2015,08,03,13,53,24.50
2015,08,03,13,54,24.50
2015,08,03,13,55,24.60
2015,08,03,13,56,24.60
2015,08,03,13,57,24.50
2015,08,03,13,58,24.50
2015,08,03,13,59,24.50
2015,08,03,14,00,24.50
2015,08,03,14,01,24.40
2015,08,03,14,02,24.40
2015,08,03,14,03,24.30
2015,08,03,14,04,24.30
2015,08,03,14,05,24.30
2015,08,03,14,06,24.40
2015,08,03,14,07,24.40
2015,08,03,14,08,24.50
2015,08,03,14,09,24.60
2015,08,03,14,10,24.60
2015,08,03,14,11,24.50
2015,08,03,14,12,24.50
2015,08,03,14,13,24.40
2015,08,03,14,14,24.30
2015,08,03,14,15,24.30
2015,08,03,14,16,24.30
2015,08,03,14,17,24.30
2015,08,03,14,18,24.10
2015,08,03,14,19,24.10
2015,08,03,14,20,24.10
2015,08,03,14,21,24.10
2015,08,03,14,22,24.10
2015,08,03,14,23,24.10
2015,08,03,14,24,24.20
2015,08,03,14,25,24.20
2015,08,03,14,26,24.30
2015,08,03,14,27,24.40
2015,08,03,14,28,24.50
2015,08,03,14,29,24.60
2015,08,03,14,30,24.60
2015,08,03,14,31,24.60
2015,08,03,14,32,24.50
2015,08,03,14,33,24.50
2015,08,03,14,34,24.50
2015,08,03,14,35,24.50
2015,08,03,14,36,24.40
2015,08,03,14,37,24.40
2015,08,03,14,38,24.40
2015,08,03,14,39,24.40
2015,08,03,14,40,24.30
2015,08,03,14,41,24.30
2015,08,03,14,42,24.30
2015,08,03,14,43,24.20
2015,08,03,14,44,24.20
2015,08,03,14,45,24.10
2015,08,03,14,46,24.10
2015,08,03,14,47,24.10
2015,08,03,14,48,24.10
2015,08,03,14,49,24.20
2015,08,03,14,50,24.20
2015,08,03,14,51,24.20
2015,08,03,14,52,24.20
2015,08,03,14,53,24.20
2015,08,03,14,54,24.30
2015,08,03,14,55,24.30
2015,08,03,14,56,24.20
2015,08,03,14,57,24.20
2015,08,03,14,58,24.30
2015,08,03,14,59,24.30
2015,08,03,15,00,24.30
2015,08,03,15,01,24.30
2015,08,03,15,02,24.30
2015,08,03,15,03,24.30
2015,08,03,15,04,24.30
2015,08,03,15,05,24.40
2015,08,03,15,06,24.40
2015,08,03,15,07,24.40
2015,08,03,15,08,24.30
2015,08,03,15,09,24.30
2015,08,03,15,10,24.30
2015,08,03,15,11,24.30
2015,08,03,15,12,24.30
2015,08,03,15,13,24.30
2015,08,03,15,14,24.30
2015,08,03,15,15,24.30
2015,08,03,15,16,24.30
2015,08,03,15,17,24.30
2015,08,03,15,18,24.30
2015,08,03,15,19,24.40
2015,08,03,15,20,24.40
2015,08,03,15,21,24.30
2015,08,03,15,22,24.30
2015,08,03,15,23,24.20
2015,08,03,15,24,24.10
2015,08,03,15,25,24.10
2015,08,03,15,26,24.10
2015,08,03,15,27,24.10
2015,08,03,15,28,24.00
2015,08,03,15,29,23.90
2015,08,03,15,30,23.90
2015,08,03,15,31,23.90
2015,08,03,15,32,23.90
2015,08,03,15,33,23.90
2015,08,03,15,34,23.90
2015,08,03,15,35,23.90
2015,08,03,15,36,23.90
2015,08,03,15,37,23.90
2015,08,03,15,38,23.80
2015,08,03,15,39,23.80
2015,08,03,15,40,23.80
2015,08,03,15,41,23.90
2015,08,03,15,42,23.90
2015,08,03,15,43,24.00
2015,08,03,15,44,24.00
2015,08,03,15,45,23.90
2015,08,03,15,46,23.80
2015,08,03,15,47,23.70
2015,08,03,15,48,23.60
2015,08,03,15,49,23.60
2015,08,03,15,50,23.50
2015,08,03,15,51,23.30
2015,08,03,15,52,23.20
2015,08,03,15,53,23.10
2015,08,03,15,54,23.00
2015,08,03,15,55,22.90
2015,08,03,15,56,22.90
2015,08,03,15,57,22.90
2015,08,03,15,58,22.90
2015,08,03,15,59,22.90
2015,08,03,16,00,22.90
2015,08,03,16,01,22.90
2015,08,03,16,02,22.90
2015,08,03,16,03,22.90
2015,08,03,16,04,22.90
2015,08,03,16,05,23.10
2015,08,03,16,06,23.10
2015,08,03,16,07,23.20
2015,08,03,16,08,23.20
2015,08,03,16,09,23.20
2015,08,03,16,10,23.20
2015,08,03,16,11,23.30
2015,08,03,16,12,23.30
2015,08,03,16,13,23.30
2015,08,03,16,14,23.30
2015,08,03,16,15,23.30
2015,08,03,16,16,23.30
2015,08,03,16,17,23.20
2015,08,03,16,18,23.10
2015,08,03,16,19,23.00
2015,08,03,16,20,22.90
2015,08,03,16,21,22.90
2015,08,03,16,22,22.90
2015,08,03,16,23,22.90
2015,08,03,16,24,22.90
2015,08,03,16,25,22.90
2015,08,03,16,26,22.90
2015,08,03,16,27,22.90
2015,08,03,16,28,22.80
2015,08,03,16,29,22.70
2015,08,03,16,30,22.60
2015,08,03,16,31,22.60
2015,08,03,16,32,22.50
2015,08,03,16,33,22.50
2015,08,03,16,34,22.50
2015,08,03,16,35,22.60
2015,08,03,16,36,22.60
2015,08,03,16,37,22.60
2015,08,03,16,38,22.60
2015,08,03,16,39,22.60
2015,08,03,16,40,22.60
2015,08,03,16,41,22.60
2015,08,03,16,42,22.70
2015,08,03,16,43,22.60
2015,08,03,16,44,22.60
2015,08,03,16,45,22.60
2015,08,03,16,46,22.50
2015,08,03,16,47,22.30
2015,08,03,16,48,22.30
2015,08,03,16,49,22.30
2015,08,03,16,50,22.30
2015,08,03,16,51,22.30
2015,08,03,16,52,22.30
2015,08,03,16,53,22.30
2015,08,03,16,54,22.30
2015,08,03,16,55,22.40
2015,08,03,16,56,22.40
2015,08,03,16,57,22.50
2015,08,03,16,58,22.50
2015,08,03,16,59,22.50
2015,08,03,17,00,22.50
2015,08,03,17,01,22.60
2015,08,03,17,02,22.60
2015,08,03,17,03,22.60
2015,08,03,17,04,22.60
2015,08,03,17,05,22.60
2015,08,03,17,06,22.50
2015,08,03,17,07,22.60
2015,08,03,17,08,22.60
2015,08,03,17,09,22.60
2015,08,03,17,10,22.70
2015,08,03,17,11,22.70
2015,08,03,17,12,22.70
2015,08,03,17,13,22.80
2015,08,03,17,14,22.90
2015,08,03,17,15,23.00
2015,08,03,17,16,23.10
2015,08,03,17,17,23.10
2015,08,03,17,18,23.20
2015,08,03,17,19,23.30